TORONTO ISLAND, Ontario

6:22 AM EST on December 07, 2016 (GMT -0500)
Toronto-City Centre

Weather History for CYTZ - April, 2013

Change the Weather History Date:

Sunday, April 14, 2013

  Actual Average Record
Temperature  
Mean Temperature 40 °F -  
Max Temperature 45 °F 48 °F 64 °F (1999)
Min Temperature 34 °F 36 °F 32 °F (1997)
Degree Days  
Heating Degree Days 26    
Moisture  
Dew Point 29 °F    
Average Humidity 63    
Maximum Humidity 75    
Minimum Humidity 47    
Precipitation  
Precipitation 0.00 in - - ()
Sea Level Pressure  
Sea Level Pressure 30.08 in    
Wind  
Wind Speed 11 mph ()    
Max Wind Speed 18 mph    
Max Gust Speed 22 mph    
Visibility 9.1 miles    
Events      
Averages and records for this station are not official NWS values.
T = Trace of Precipitation, MM = Missing Value Source: Averaged Metar Reports

Daily Weather History Graph

Daily Weather History Graph

Search for Another Location

Airport or City:

Trip Planner

Search our weather history database for the weather conditions in past years. The results will help you decide how hot, cold, wet, or windy it might be!

Date:

Astronomy

Apr. 14, 2013 Rise Set
Actual Time 6:36 AM EDT 8:00 PM EDT
Civil Twilight 6:06 AM EDT 8:30 PM EDT
Nautical Twilight 5:30 AM EDT 9:06 PM EDT
Astronomical Twilight 4:52 AM EDT 9:44 PM EDT
Moon 9:06 AM EDT (4/14) No Moon Set
Length of Visible Light 14h 23m
Length of Day
13h 23m
Waxing Crescent, 17% of the Moon is Illuminated
Apr 14
Waxing Crescent
Apr 18
First Quarter
Apr 25
Full
May 2
Last Quarter
May 9
New

Hourly Weather History & Observations

Time (EDT) Temp. Windchill Dew Point Humidity Pressure Visibility Wind Dir Wind Speed Gust Speed Precip Events Conditions
12:00 AM 39.2 °F 31.2 °F 30.2 °F 70% 29.93 in 9.0 mi West 13.8 mph 19.6 mph N/A   Overcast
1:00 AM 37.4 °F 28.2 °F 30.2 °F 75% 29.94 in 9.0 mi WSW 16.1 mph 21.9 mph N/A   Overcast
2:00 AM 37 °F - 27 °F 56% 29.96 in 10 mi West 17.3 mph - -  
2:00 AM 37.4 °F 27.5 °F 26.6 °F 65% 29.96 in 9.0 mi West 18.4 mph - N/A   Scattered Clouds
3:00 AM 35.6 °F 26.2 °F 26.6 °F 70% 29.96 in 9.0 mi West 15.0 mph - N/A   Clear
4:00 AM 35.6 °F 27.5 °F 26.6 °F 70% 29.98 in 9.0 mi West 11.5 mph 18.4 mph N/A   Partly Cloudy
5:00 AM 35.6 °F 27.5 °F 28.4 °F 75% 30.00 in 9.0 mi West 11.5 mph - N/A   Partly Cloudy
6:00 AM 35.6 °F 27.5 °F 28.4 °F 75% 30.02 in 9.0 mi WSW 11.5 mph - N/A   Scattered Clouds
7:00 AM 35.6 °F 27.1 °F 28.4 °F 75% 30.04 in 9.0 mi WSW 12.7 mph - N/A   Clear
8:00 AM 37 °F - 29 °F 62% 30.06 in 10 mi West 10.4 mph - -  
8:00 AM 37.4 °F 30.3 °F 28.4 °F 70% 30.06 in 9.0 mi West 10.4 mph - N/A   Clear
9:00 AM 39.2 °F 31.6 °F 28.4 °F 65% 30.09 in 9.0 mi West 12.7 mph - N/A   Clear
10:00 AM 41.0 °F 32.8 °F 28.4 °F 61% 30.09 in 9.0 mi West 16.1 mph - N/A   Mostly Cloudy
11:00 AM 41.0 °F 32.8 °F 26.6 °F 57% 30.10 in 9.0 mi WNW 16.1 mph 21.9 mph N/A   Overcast
12:00 PM 42.8 °F 38.0 °F 28.4 °F 57% 30.12 in 9.0 mi WSW 8.1 mph - N/A   Mostly Cloudy
1:00 PM 42.8 °F 38.0 °F 26.6 °F 53% 30.14 in 9.0 mi West 8.1 mph - N/A   Overcast
2:00 PM 42 °F - 29 °F 47% 30.15 in 10 mi SSW 5.8 mph - -   Overcast
2:00 PM 42.8 °F 39.3 °F 28.4 °F 57% 30.14 in 9.0 mi South 5.8 mph - N/A   Overcast
3:00 PM 44.6 °F 40.7 °F 30.2 °F 57% 30.13 in 9.0 mi South 6.9 mph - N/A   Overcast
4:00 PM 44.6 °F 39.2 °F 28.4 °F 53% 30.14 in 9.0 mi South 10.4 mph - N/A   Mostly Cloudy
5:00 PM 44.6 °F 40.7 °F 28.4 °F 53% 30.13 in 9.0 mi SE 6.9 mph - N/A   Mostly Cloudy
6:00 PM 42.8 °F 38.0 °F 30.2 °F 61% 30.13 in 9.0 mi ESE 8.1 mph - N/A   Mostly Cloudy
7:00 PM 42.8 °F 38.0 °F 30.2 °F 61% 30.14 in 9.0 mi ESE 8.1 mph - N/A   Partly Cloudy
8:00 PM 41 °F - 28 °F 49% 30.15 in 10 mi ESE 5.8 mph - -  
8:00 PM 41.0 °F 37.1 °F 28.4 °F 61% 30.15 in 9.0 mi ESE 5.8 mph - N/A   Clear
9:00 PM 41.0 °F 38.0 °F 30.2 °F 65% 30.17 in 9.0 mi East 4.6 mph - N/A   Mostly Cloudy
10:00 PM 39.2 °F 33.0 °F 30.2 °F 70% 30.17 in 9.0 mi East 9.2 mph - N/A   Clear
11:00 PM 39.2 °F 33.6 °F 28.4 °F 65% 30.17 in 9.0 mi East 8.1 mph - N/A   Clear